Regional Weather Roundup
Issued by NWS Goodland, KS

Home | Current Version | Previous Version | Graphics & Text | Print | Product List | Glossary On
Versions: 1 2 3 4 5 6 7 8 9 10 11 12 13 14 15 16 17 18 19 20 21 22 23 24 25 26 27 28 29 30 31 32 33 34 35 36 37 38 39 40 41 42 43 44 45 46 47 48 49 50
000
ASUS43 KGLD 310808
RWRGLD

GOODLAND FORECAST AREA HOURLY WEATHER ROUNDUP
NATIONAL WEATHER SERVICE GOODLAND KS
200 AM MDT TUE MAY 31 2016

...OFFICIAL OBSERVATIONS...

CITY           SKY/WX    TMP DP  RH WIND       PRES   REMARKS
GOODLAND KS    CLOUDY    50  48  93 NW6       29.97R
HILL CITY KS   CLOUDY    59  57  93 E3        29.92S
IMPERIAL NEB   PTCLDY    57  52  83 N8        30.04R
MCCOOK NEB     CLOUDY    56  53  90 NW12      29.98R
AKRON CO       CLEAR     52  49  89 NE15      30.06R
BURLINGTON CO  CLEAR     52  46  80 SW6       30.00R
LIMON CO       PTCLDY    46  42  86 N5        30.04R
$$

...UNOFFICIAL OBSERVATIONS...

CITY           SKY/WX    TMP DP  RH WIND       PRES   REMARKS
GOVE KS          N/A    N/A N/A N/A MISG        N/A
LENORA KS        N/A     58  32  37 MISG        N/A
SHARON SPRINGS   N/A     57  53  88 CALM        N/A
KIT CARSON CO    N/A     55  49  81 CALM        N/A
YUMA CO          N/A     54  50  86 NE15        N/A
$$




USA.gov is the U.S. government's official web portal to all federal, state and local government web resources and services.